Rzeszow, Poland

8:02 AM CEST on October 01, 2016 (GMT +0200)
Jasionka

Weather History for EPRZ - October, 2013

Change the Weather History Date:

Sunday, October 20, 2013

  Actual Average Record
Temperature  
Mean Temperature 50 °F -  
Max Temperature 64 °F 53 °F 69 °F (2004)
Min Temperature 35 °F 38 °F 28 °F (2003)
Degree Days  
Heating Degree Days 16    
Moisture  
Dew Point 42 °F    
Average Humidity 60    
Maximum Humidity 87    
Minimum Humidity 33    
Precipitation  
Precipitation 0.00 in - - ()
Sea Level Pressure  
Sea Level Pressure 30.10 in    
Wind  
Wind Speed 13 mph ()    
Max Wind Speed 23 mph    
Max Gust Speed -    
Visibility 19.0 miles    
Events      
Averages and records for this station are not official NWS values.
T = Trace of Precipitation, MM = Missing Value Source: Averaged Metar Reports

Daily Weather History Graph

Daily Weather History Graph

Search for Another Location

Airport or City:

Trip Planner

Search our weather history database for the weather conditions in past years. The results will help you decide how hot, cold, wet, or windy it might be!

Date:

Astronomy

Oct. 20, 2013 Rise Set
Actual Time 7:02 AM CEST 5:30 PM CEST
Civil Twilight 6:28 AM CEST 6:03 PM CEST
Nautical Twilight 5:51 AM CEST 6:41 PM CEST
Astronomical Twilight 5:13 AM CEST 7:18 PM CEST
Moon 6:15 PM CEST (10/20) 8:30 AM CEST (10/20)
Length of Visible Light 11h 34m
Length of Day
10h 28m
Full, 98% of the Moon is Illuminated
Oct 20
Full
Oct 27
Last Quarter
Nov 3
New
Nov 10
First Quarter
Nov 17
Full

Hourly Weather History & Observations

Time (CEST) Temp. Windchill Dew Point Humidity Pressure Visibility Wind Dir Wind Speed Gust Speed Precip Events Conditions
12:00 AM 37.4 °F - 33.8 °F 87% 30.18 in - Variable 2.3 mph - N/A   Clear
12:30 AM 41.0 °F - 37.4 °F 87% 30.15 in - Variable 2.3 mph - N/A   Clear
1:00 AM 46.4 °F 41.9 °F 39.2 °F 76% 30.15 in - South 9.2 mph - N/A   Clear
1:30 AM 46.4 °F 41.5 °F 37.4 °F 71% 30.15 in - SSW 10.4 mph - N/A   Clear
2:00 AM 47 °F - 37 °F 58% 30.17 in 19 mi SSW 13.4 mph - -  
2:00 AM 46.4 °F 40.7 °F 37.4 °F 71% 30.15 in - SSW 12.7 mph - N/A   Clear
2:30 AM 46.4 °F 40.7 °F 37.4 °F 71% 30.15 in - SSW 12.7 mph - N/A   Clear
3:00 AM 48.2 °F - 37.4 °F 66% 30.12 in - SSW 13.8 mph - N/A   Clear
3:30 AM 48.2 °F - 37.4 °F 66% 30.12 in - SSW 16.1 mph - N/A   Clear
4:00 AM 48.2 °F - 37.4 °F 66% 30.12 in - SSW 17.3 mph - N/A   Clear
4:30 AM 48.2 °F - 37.4 °F 66% 30.12 in - SSW 18.4 mph - N/A   Clear
5:00 AM 49 °F - 37 °F 52% 30.14 in 19 mi SSW 17.9 mph - -  
5:00 AM 48.2 °F - 37.4 °F 66% 30.12 in - SSW 19.6 mph - N/A   Clear
5:30 AM 48.2 °F - 37.4 °F 66% 30.12 in - SSW 17.3 mph - N/A   Clear
6:00 AM 48.2 °F - 37.4 °F 66% 30.09 in - SSW 17.3 mph - N/A   Clear
6:30 AM 48.2 °F - 37.4 °F 66% 30.09 in - SSW 17.3 mph - N/A   Clear
7:00 AM 48.2 °F - 37.4 °F 66% 30.09 in - SSW 16.1 mph - N/A   Clear
7:30 AM 48.2 °F - 39.2 °F 71% 30.12 in - SSW 15.0 mph - N/A   Clear
8:00 AM 50 °F - 39 °F 55% 30.14 in 19 mi SSW 13.4 mph - -   Scattered Clouds
8:00 AM 50.0 °F - 39.2 °F 66% 30.12 in - SSW 16.1 mph - N/A   Clear
8:30 AM 51.8 °F - 39.2 °F 62% 30.12 in - SSW 15.0 mph - N/A   Clear
9:00 AM 53.6 °F - 41.0 °F 62% 30.09 in - SSW 21.9 mph - N/A   Clear
9:30 AM 55.4 °F - 41.0 °F 58% 30.09 in - SSW 19.6 mph - N/A   Clear
10:00 AM 55.4 °F - 41.0 °F 58% 30.09 in - SSW 18.4 mph - N/A   Clear
10:30 AM 57.2 °F - 42.8 °F 59% 30.09 in - SSW 23.0 mph - N/A   Clear
11:00 AM 58 °F - 42 °F 43% 30.12 in 19 mi SSW 22.4 mph - -   Scattered Clouds
11:00 AM 59.0 °F - 42.8 °F 55% 30.12 in - SSW 23.0 mph - N/A   Clear
11:30 AM 59.0 °F - 42.8 °F 55% 30.12 in - SSW 21.9 mph - N/A   Clear
12:00 PM 60.8 °F - 42.8 °F 52% 30.12 in - SSW 19.6 mph - N/A   Clear
12:30 PM 60.8 °F - 44.6 °F 55% 30.09 in - SSW 20.7 mph - N/A   Clear
1:00 PM 62.6 °F - 42.8 °F 48% 30.09 in - SSW 21.9 mph - N/A   Clear
1:30 PM 62.6 °F - 42.8 °F 48% 30.09 in - SSW 19.6 mph - N/A   Clear
2:00 PM 64 °F - 42 °F 33% 30.09 in 19 mi SSW 15.7 mph - -   Partly Cloudy
2:00 PM 64.4 °F - 42.8 °F 45% 30.09 in - SW 20.7 mph - N/A   Clear
2:30 PM 64.4 °F - 42.8 °F 45% 30.06 in - SSW 16.1 mph - N/A   Clear
3:00 PM 64.4 °F - 42.8 °F 45% 30.06 in - SSW 18.4 mph - N/A   Clear
3:30 PM 62.6 °F - 44.6 °F 52% 30.06 in - SSW 18.4 mph - N/A   Clear
4:00 PM 62.6 °F - 46.4 °F 55% 30.06 in - SSW 18.4 mph - N/A   Clear
4:30 PM 62.6 °F - 44.6 °F 52% 30.06 in - SSW 17.3 mph - N/A   Clear
5:00 PM 61 °F - 44 °F 41% 30.08 in 19 mi SSW 13.4 mph - -   Mostly Cloudy
5:00 PM 60.8 °F - 44.6 °F 55% 30.06 in - SSW 13.8 mph - N/A   Clear
5:30 PM 60.8 °F - 44.6 °F 55% 30.06 in - SSW 12.7 mph - N/A   Clear
6:00 PM 59.0 °F - 44.6 °F 59% 30.09 in - South 5.8 mph - N/A   Clear
6:30 PM 59.0 °F - 44.6 °F 59% 30.09 in - SSW 9.2 mph - N/A   Clear
7:00 PM 57.2 °F - 44.6 °F 63% 30.06 in - South 9.2 mph - N/A   Clear
7:30 PM 57.2 °F - 46.4 °F 67% 30.09 in - SSW 11.5 mph - N/A   Clear
8:00 PM 58 °F - 45 °F 52% 30.09 in 19 mi SSW 15.7 mph - -   Scattered Clouds
8:00 PM 59.0 °F - 46.4 °F 63% 30.06 in - SSW 13.8 mph - N/A   Clear
8:30 PM 59.0 °F - 46.4 °F 63% 30.06 in - SSW 16.1 mph - N/A   Clear
9:00 PM 59.0 °F - 46.4 °F 63% 30.06 in - SSW 17.3 mph - N/A   Clear
9:30 PM 59.0 °F - 46.4 °F 63% 30.06 in - SSW 17.3 mph - N/A   Clear
10:00 PM 57.2 °F - 46.4 °F 67% 30.06 in - SSW 11.5 mph - N/A   Clear
10:30 PM 57.2 °F - 46.4 °F 67% 30.06 in - SSW 11.5 mph - N/A   Clear
11:00 PM 57 °F - 45 °F 55% 30.09 in 19 mi SSW 8.9 mph - -   Partly Cloudy
11:00 PM 57.2 °F - 46.4 °F 67% 30.06 in - SSW 10.4 mph - N/A   Clear
11:30 PM 57.2 °F - 46.4 °F 67% 30.06 in - SSW 6.9 mph - N/A   Clear